Temp
-12 -11 -12 -11 -11 -11 -11 -11 -11 -10 -11 -11 -11 -11 -11 -11 -10 -10 -10 -10 -11 -11 -11 -11 -11 -12 -12 -12 -13 -13 -13 -12 -12 -12 -12 -12 -11 -11 -11 -11 -11 -11 -11 -11
-12 -12 -12 -11 -11 -11 -11 -11 -11 -11 -11 -11 -11 -11 -11 -10 -10 -10 -11 -11 -11 -11 -12 -12 -12 -13 -13 -13 -13 -13 -13 -12 -12 -12 -12 -11 -11 -11 -11 -11 -11 -11 -11 -11
-12 -12 -12 -11 -11 -11 -11 -11 -11 -11 -11 -11 -11 -11 -11 -11 -10 -11 -12 -12 -12 -12 -13 -13 -13 -13 -13 -13 -13 -13 -13 -12 -12 -12 -12 -12 -11 -11 -11 -11 -11 -11 -11 -12
-12 -12 -12 -12 -12 -12 -12 -12 -11 -11 -11 -11 -11 -11 -12 -12 -12 -12 -12 -12 -13 -13 -13 -13 -13 -13 -13 -13 -13 -13 -13 -13 -13 -13 -13 -11 -11 -11 -11 -11 -11 -11 -11 -12
-12 -12 -12 -12 -12 -12 -12 -12 -11 -11 -12 -12 -12 -12 -12 -12 -12 -12 -13 -13 -13 -13 -13 -13 -13 -13 -13 -13 -13 -13 -13 -13 -13 -13 -13 -11 -11 -11 -11 -11 -11 -11 -11 -11
-12 -12 -12 -12 -12 -12 -12 -12 -12 -12 -12 -13 -13 -13 -12 -12 -12 -12 -13 -13 -13 -13 -13 -13 -13 -13 -13 -13 -13 -13 -13 -13 -13 -13 -12 -11 -11 -11 -11 -11 -11 -11 -11 -11
-12 -12 -12 -12 -12 -12 -12 -13 -13 -13 -13 -13 -13 -13 -13 -12 -12 -13 -13 -13 -13 -13 -13 -13 -13 -13 -13 -13 -13 -13 -13 -13 -13 -12 -11 -11 -11 -11 -11 -11 -11 -11 -11 -11
-13 -13 -13 -13 -13 -13 -13 -13 -13 -13 -13 -13 -13 -13 -13 -13 -13 -13 -13 -13 -13 -13 -13 -13 -13 -13 -13 -13 -13 -13 -13 -13 -13 -12 -11 -11 -11 -11 -11 -10 -10 -10 -10 -11
-13 -13 -13 -13 -13 -13 -13 -13 -13 -13 -13 -13 -13 -13 -13 -13 -13 -13 -13 -13 -13 -13 -13 -14 -14 -13 -13 -13 -13 -13 -13 -12 -12 -12 -11 -10 -10 -10 -10 -10 -10 -10 -10 -11
-13 -13 -13 -13 -13 -13 -13 -13 -13 -13 -13 -13 -13 -13 -13 -13 -13 -13 -13 -13 -13 -13 -13 -13 -13 -13 -13 -13 -13 -13 -12 -12 -12 -11 -10 -10 -10 -10 -10 -10 -10 -10 -10 -10
-13 -13 -13 -13 -13 -13 -13 -13 -13 -13 -13 -13 -13 -13 -14 -14 -14 -13 -13 -13 -13 -13 -13 -13 -13 -13 -13 -13 -13 -12 -12 -11 -10 -10 -10 -10 -10 -10 -10 -10 -10 -10 -10 -10
-13 -13 -13 -13 -13 -13 -13 -13 -13 -13 -13 -13 -13 -13 -13 -13 -13 -13 -13 -13 -13 -13 -13 -12 -12 -12 -12 -12 -12 -12 -11 -11 -10 -10 -10 -10 -10 -10 -10 -10 -10 -10 -10 -10
-13 -13 -13 -13 -13 -13 -13 -13 -13 -13 -13 -13 -13 -13 -13 -13 -13 -13 -13 -13 -13 -13 -12 -12 -12 -12 -12 -11 -11 -11 -11 -10 -10 -10 -10 -10 -10 -10 -10 -10 -11 -11 -11 -11
-13 -13 -13 -13 -13 -13 -13 -13 -13 -13 -13 -13 -13 -14 -14 -13 -13 -13 -13 -12 -12 -12 -12 -12 -12 -12 -12 -12 -11 -11 -11 -11 -11 -11 -10 -11 -11 -11 -11 -11 -11 -12 -12 -11
-13 -13 -13 -13 -13 -13 -13 -13 -13 -13 -13 -13 -13 -13 -14 -13 -13 -13 -13 -13 -13 -13 -12 -12 -13 -13 -12 -12 -12 -12 -12 -11 -11 -11 -11 -11 -11 -11 -11 -11 -11 -11 -11 -11
-13 -13 -13 -13 -13 -13 -13 -13 -13 -13 -13 -13 -13 -13 -13 -13 -13 -12 -12 -13 -13 -13 -13 -13 -13 -12 -12 -12 -12 -13 -12 -12 -12 -12 -12 -12 -12 -12 -11 -11 -11 -11 -11 -11
-13 -13 -13 -13 -13 -13 -13 -13 -13 -13 -13 -13 -13 -13 -13 -14 -14 -13 -13 -14 -14 -13 -13 -13 -13 -13 -13 -13 -13 -13 -13 -13 -13 -13 -13 -12 -12 -12 -12 -12 -12 -11 -11 -11
-13 -13 -13 -13 -13 -13 -14 -14 -14 -14 -14 -14 -14 -14 -15 -15 -15 -15 -15 -14 -14 -13 -13 -13 -14 -14 -13 -13 -13 -13 -13 -13 -13 -13 -12 -12 -12 -12 -12 -12 -12 -11 -11 -11
-14 -14 -14 -14 -14 -14 -14 -14 -14 -14 -14 -15 -15 -15 -15 -15 -15 -15 -15 -15 -15 -15 -15 -14 -14 -14 -13 -13 -13 -13 -13 -13 -12 -12 -12 -12 -12 -12 -12 -12 -11 -11 -11 -11
-15 -15 -15 -15 -14 -14 -15 -15 -15 -14 -14 -15 -15 -15 -15 -15 -15 -16 -15 -15 -15 -15 -15 -15 -15 -15 -14 -14 -14 -13 -13 -13 -13 -13 -13 -12 -12 -12 -12 -12 -11 -11 -12 -12
-15 -15 -15 -15 -15 -14 -16 -16 -15 -15 -14 -14 -14 -14 -15 -15 -15 -15 -15 -15 -15 -15 -15 -15 -14 -14 -14 -14 -14 -14 -14 -14 -14 -13 -13 -13 -13 -13 -13 -13 -12 -12 -12 -13
-16 -16 -16 -16 -16 -15 -16 -15 -15 -15 -15 -15 -15 -15 -15 -16 -16 -15 -15 -15 -15 -15 -15 -14 -14 -15 -14 -14 -14 -14 -14 -14 -14 -14 -14 -14 -14 -14 -13 -14 -14 -14 -14 -14
-16 -17 -16 -17 -17 -17 -17 -17 -17 -17 -16 -16 -16 -16 -16 -17 -16 -16 -16 -16 -16 -16 -16 -16 -16 -16 -16 -16 -15 -15 -15 -15 -16 -16 -15 -15 -16 -16 -16 -16 -17 -17 -17 -17
-17 -17 -17 -17 -17 -18 -17 -17 -17 -17 -17 -17 -17 -17 -17 -17 -17 -17 -17 -17 -17 -17 -17 -17 -17 -17 -17 -18 -17 -17 -17 -17 -17 -18 -18 -18 -18 -19 -19 -20 -19 -19 -19 -19
-18 -18 -19 -18 -18 -18 -18 -18 -18 -18 -18 -18 -18 -18 -18 -18 -18 -18 -18 -18 -18 -18 -18 -18 -18 -19 -19 -19 -19 -19 -19 -19 -19 -20 -20 -20 -20 -20 -21 -21 -21 -21 -21 -20
-20 -20 -19 -19 -20 -19 -19 -19 -19 -19 -19 -19 -19 -19 -19 -19 -19 -19 -19 -19 -19 -19 -20 -20 -20 -20 -20 -20 -20 -21 -21 -21 -21 -21 -21 -21 -21 -22 -22 -21 -21 -22 -22 -23
Height
5813 5817 5818 5821 5823 5824 5824 5824 5824 5823 5824 5824 5821 5820 5821 5819 5816 5815 5812 5810 5807 5805 5804 5803 5802 5800 5800 5799 5799 5798 5796 5794 5792 5790 5788 5784 5781 5779 5778 5775 5772 5768 5764 5759
5811 5813 5815 5816 5818 5818 5817 5817 5818 5817 5817 5816 5816 5815 5813 5811 5808 5806 5804 5801 5799 5797 5797 5796 5796 5795 5796 5796 5796 5794 5792 5790 5788 5786 5783 5780 5778 5776 5773 5770 5767 5764 5760 5754
5807 5810 5810 5811 5812 5813 5813 5812 5813 5813 5812 5810 5809 5808 5805 5803 5801 5798 5796 5794 5793 5792 5791 5791 5792 5793 5793 5793 5792 5790 5788 5786 5784 5781 5778 5775 5773 5771 5769 5767 5764 5760 5755 5749
5804 5805 5806 5807 5808 5808 5809 5809 5808 5808 5806 5805 5803 5802 5799 5796 5793 5792 5791 5789 5789 5788 5787 5788 5789 5790 5790 5789 5788 5785 5783 5781 5779 5775 5772 5769 5768 5766 5765 5762 5758 5753 5748 5744
5802 5802 5803 5803 5804 5805 5805 5804 5803 5802 5800 5799 5797 5796 5794 5792 5791 5788 5785 5784 5783 5784 5785 5787 5787 5787 5786 5785 5783 5781 5778 5776 5773 5770 5766 5764 5763 5762 5759 5755 5752 5748 5743 5738
5798 5799 5800 5801 5801 5800 5800 5799 5797 5795 5795 5795 5793 5792 5791 5789 5788 5785 5782 5781 5781 5783 5784 5784 5784 5783 5782 5780 5777 5775 5773 5771 5767 5764 5761 5761 5759 5757 5754 5751 5747 5742 5738 5732
5794 5795 5795 5796 5795 5795 5794 5792 5792 5792 5792 5791 5789 5787 5786 5785 5784 5783 5781 5781 5782 5782 5782 5781 5780 5778 5776 5775 5773 5770 5767 5765 5762 5759 5757 5755 5754 5751 5749 5745 5741 5737 5732 5727
5790 5791 5790 5790 5790 5790 5790 5790 5790 5788 5788 5787 5785 5784 5781 5780 5780 5780 5780 5781 5780 5780 5778 5777 5775 5773 5771 5769 5767 5764 5762 5759 5756 5753 5751 5749 5748 5745 5742 5739 5734 5730 5725 5720
5785 5786 5786 5786 5787 5788 5787 5787 5786 5784 5784 5784 5783 5782 5779 5777 5777 5777 5777 5777 5776 5775 5773 5772 5769 5767 5765 5763 5760 5758 5754 5752 5749 5747 5744 5742 5740 5738 5735 5731 5728 5723 5718 5713
5781 5782 5783 5783 5784 5784 5783 5783 5782 5781 5781 5780 5779 5778 5776 5775 5774 5774 5774 5773 5771 5770 5768 5766 5763 5761 5758 5755 5753 5750 5747 5744 5742 5740 5738 5735 5732 5730 5727 5723 5719 5716 5710 5705
5779 5780 5781 5780 5780 5780 5779 5778 5778 5778 5777 5776 5775 5775 5772 5772 5770 5770 5769 5768 5766 5764 5760 5758 5755 5753 5751 5747 5745 5743 5739 5737 5735 5733 5730 5727 5724 5720 5718 5714 5711 5707 5702 5697
5777 5777 5777 5777 5776 5776 5775 5774 5773 5773 5774 5771 5769 5772 5766 5765 5764 5764 5764 5762 5759 5755 5752 5750 5748 5745 5742 5739 5737 5734 5731 5729 5727 5724 5721 5718 5715 5711 5708 5704 5700 5696 5692 5687
5773 5773 5773 5773 5774 5772 5771 5770 5768 5768 5767 5767 5763 5765 5759 5756 5756 5757 5755 5753 5749 5745 5743 5741 5738 5735 5733 5731 5728 5725 5721 5719 5716 5714 5711 5708 5704 5701 5698 5695 5690 5685 5682 5677
5768 5768 5768 5768 5767 5766 5765 5764 5762 5760 5761 5759 5759 5756 5751 5749 5748 5748 5744 5741 5739 5735 5733 5730 5728 5724 5721 5719 5717 5715 5711 5708 5706 5703 5699 5697 5693 5691 5687 5684 5680 5676 5672 5668
5763 5763 5762 5762 5760 5759 5760 5760 5757 5755 5753 5749 5751 5747 5743 5739 5739 5736 5734 5732 5730 5727 5723 5720 5718 5714 5711 5709 5707 5703 5700 5697 5693 5690 5687 5684 5679 5676 5674 5672 5669 5666 5661 5657
5757 5756 5756 5756 5751 5750 5752 5751 5749 5747 5745 5742 5738 5740 5732 5732 5729 5726 5722 5722 5719 5715 5712 5710 5708 5705 5701 5698 5697 5694 5690 5686 5682 5678 5675 5671 5668 5665 5661 5658 5655 5652 5648 5645
5749 5747 5746 5748 5744 5743 5744 5741 5738 5735 5733 5730 5730 5729 5727 5724 5722 5718 5715 5713 5708 5705 5701 5698 5695 5692 5687 5684 5681 5680 5676 5673 5671 5667 5663 5660 5657 5653 5648 5644 5641 5637 5634 5630
5741 5739 5736 5737 5733 5732 5733 5731 5727 5725 5723 5720 5719 5716 5715 5712 5710 5706 5704 5702 5698 5693 5691 5687 5683 5679 5675 5672 5668 5665 5661 5658 5655 5652 5649 5646 5642 5639 5634 5630 5625 5621 5618 5614
5729 5727 5724 5723 5722 5720 5724 5719 5715 5711 5712 5711 5707 5703 5700 5700 5700 5696 5690 5687 5683 5681 5677 5672 5670 5665 5662 5659 5654 5650 5647 5643 5639 5635 5632 5628 5625 5621 5618 5614 5610 5605 5601 5597
5720 5718 5717 5713 5709 5707 5712 5707 5704 5699 5699 5697 5694 5691 5688 5687 5687 5684 5678 5673 5670 5665 5661 5657 5654 5650 5646 5643 5639 5634 5631 5627 5623 5618 5614 5610 5606 5602 5598 5593 5589 5585 5580 5576
5711 5706 5705 5703 5697 5699 5698 5693 5690 5688 5686 5681 5681 5680 5678 5675 5671 5668 5664 5662 5656 5650 5646 5642 5637 5632 5628 5625 5622 5617 5613 5608 5603 5598 5594 5589 5584 5580 5576 5571 5567 5563 5560 5555
5701 5697 5694 5690 5687 5684 5683 5679 5677 5673 5668 5664 5662 5663 5662 5659 5654 5649 5644 5640 5637 5634 5631 5626 5621 5615 5609 5604 5600 5596 5593 5589 5584 5578 5573 5568 5562 5558 5554 5549 5544 5539 5537 5533
5689 5687 5683 5682 5677 5673 5668 5664 5659 5655 5652 5650 5645 5641 5640 5639 5636 5631 5626 5622 5618 5612 5608 5604 5601 5596 5590 5585 5580 5576 5570 5565 5560 5555 5549 5545 5541 5536 5531 5527 5524 5519 5514 5511
5675 5673 5671 5668 5667 5661 5656 5648 5642 5639 5636 5631 5629 5624 5621 5616 5612 5609 5606 5601 5597 5592 5587 5583 5578 5573 5568 5563 5557 5552 5547 5543 5538 5534 5529 5524 5520 5516 5511 5506 5502 5498 5494 5491
5664 5660 5658 5650 5648 5642 5638 5634 5628 5623 5617 5613 5610 5605 5601 5596 5592 5588 5584 5580 5575 5570 5564 5559 5554 5551 5546 5540 5535 5528 5524 5519 5515 5511 5507 5503 5500 5496 5494 5489 5483 5479 5475 5471
5650 5647 5638 5631 5625 5618 5618 5615 5613 5608 5602 5596 5592 5588 5584 5579 5574 5570 5565 5560 5556 5551 5544 5538 5533 5528 5523 5519 5514 5507 5502 5498 5495 5492 5489 5485 5481 5477 5472 5469 5469 5461 5456 5452
Wind_Speed
22 23 20 20 23 27 30 34 33 38 35 35 35 36 37 39 40 39 38 35 32 32 31 30 24 16 12 11 11 14 17 18 16 19 21 24 19 11 13 14 13 18 21 27
22 22 21 22 26 27 28 31 33 33 36 35 34 36 39 39 39 36 35 33 32 30 25 17 13 11 10 10 13 16 17 17 19 21 25 26 14 11 13 13 16 19 24 28
24 24 25 26 27 28 32 31 31 32 32 34 35 37 35 36 35 33 28 24 21 17 14 12 11 11 11 12 15 17 18 19 23 26 28 23 13 15 17 18 20 23 26 30
22 22 22 23 25 28 29 28 30 32 33 32 32 32 27 23 20 17 19 20 17 16 14 11 11 12 12 15 18 20 19 23 26 27 25 16 16 19 21 23 25 27 30 34
18 19 19 22 24 26 28 29 32 31 28 29 25 19 15 13 14 17 18 16 13 10 11 12 13 14 16 19 21 20 21 24 26 24 21 18 19 21 24 25 28 31 33 36
17 18 20 22 24 27 29 28 27 26 23 15 16 17 15 13 13 12 10 7 6 8 11 12 16 18 21 22 22 22 23 26 26 24 20 18 21 24 25 28 30 33 35 38
19 20 22 24 24 23 23 20 14 13 13 15 16 17 18 16 12 9 5 1 5 8 12 16 20 22 23 22 22 24 27 29 27 24 21 23 24 27 28 30 32 34 37 39
20 19 19 19 21 19 13 13 14 13 13 13 14 15 13 14 13 10 9 8 9 13 17 20 22 24 24 24 25 27 30 30 28 26 27 27 28 28 29 30 33 35 37 39
16 17 19 17 14 14 15 16 14 13 11 14 15 11 10 8 11 13 13 14 16 19 20 20 23 26 28 29 30 32 33 32 30 31 30 30 30 31 33 34 34 36 40 42
14 13 12 13 14 15 14 13 11 13 14 13 14 13 13 12 11 12 14 16 18 19 22 25 27 31 33 34 36 37 38 36 35 32 32 34 35 36 37 37 38 41 44 46
11 12 13 11 12 12 12 13 15 15 16 17 16 15 16 17 18 18 19 20 22 25 29 29 31 33 34 38 39 40 39 34 34 34 35 37 38 39 40 41 42 44 47 47
10 11 13 13 14 14 16 16 18 19 19 21 21 16 23 24 25 24 25 24 27 30 28 30 30 32 35 37 37 36 36 36 36 37 39 41 43 44 45 47 49 50 51 51
13 13 14 15 17 18 19 21 22 23 23 22 26 22 28 29 28 27 27 27 31 33 33 33 33 32 33 33 34 35 36 38 39 40 42 43 45 47 48 49 50 49 47 46
18 18 19 20 21 23 24 25 27 29 27 29 26 28 34 33 32 30 34 32 32 35 34 34 34 35 36 37 38 40 41 42 42 44 45 46 48 48 47 44 43 41 42 43
23 23 25 25 28 29 28 28 32 33 33 36 33 35 38 40 36 34 34 34 34 36 37 38 38 40 42 42 42 43 46 47 48 48 49 49 50 50 48 48 48 45 46 47
29 29 30 28 34 35 33 33 35 37 38 39 41 34 38 36 38 39 40 39 40 41 43 44 45 46 48 49 48 49 50 50 50 50 49 49 48 49 49 49 50 50 51 53
35 36 37 34 37 37 37 39 41 41 41 40 39 39 40 40 39 41 41 41 44 47 48 49 49 49 51 53 52 50 51 51 51 51 52 53 53 54 54 55 55 57 58 60
40 41 43 41 42 41 37 35 38 38 38 40 39 40 38 37 36 39 40 40 43 46 47 48 50 51 53 54 55 56 56 57 57 56 57 57 57 58 59 60 62 64 65 67
39 40 41 40 39 41 32 35 39 42 40 39 41 43 45 44 43 44 48 49 49 48 50 52 53 55 56 57 57 59 59 60 62 63 64 64 64 65 66 67 68 70 71 73
35 36 37 39 42 43 35 38 40 44 44 43 45 46 48 49 47 46 49 52 54 56 58 59 59 60 62 62 63 64 65 65 66 67 68 69 70 71 72 73 72 73 73 73
35 40 41 41 46 43 38 41 44 46 50 50 50 50 51 50 51 53 55 55 56 59 61 63 65 66 67 67 67 69 70 71 71 72 73 75 76 77 78 78 79 79 78 76
35 38 40 43 45 47 46 47 48 50 52 55 57 55 54 54 56 57 60 62 62 63 64 66 69 70 72 74 74 74 73 73 74 75 77 77 78 78 78 78 76 75 75 72
44 44 46 45 47 48 51 55 58 60 62 62 65 66 63 61 63 65 67 69 70 72 74 75 75 74 75 77 78 78 79 79 78 78 78 78 76 75 74 72 70 68 67 65
50 50 50 50 53 55 58 62 64 65 68 70 71 73 73 73 74 75 75 76 77 77 77 78 78 78 78 79 79 81 81 80 77 74 71 71 70 67 65 64 63 61 60 59
53 53 53 60 61 63 66 67 70 73 76 77 77 77 77 79 80 80 80 80 80 80 79 79 79 79 77 76 74 73 73 73 72 70 69 67 66 65 61 60 58 56 56 57
55 56 61 66 65 70 71 71 71 72 74 76 77 79 80 81 81 80 78 76 75 75 75 76 76 75 73 71 69 69 70 69 68 67 67 67 65 63 62 60 57 57 55 54
Wind_Direction
229 235 236 247 260 271 277 279 280 287 283 277 282 287 287 289 292 294 293 289 287 286 285 283 285 280 271 264 271 285 296 298 299 302 306 311 314 318 325 319 320 324 325 333
235 238 248 260 269 270 279 280 277 273 277 282 293 294 294 292 290 289 288 287 285 283 281 277 260 247 242 263 285 296 298 296 300 302 305 305 297 305 311 309 309 318 326 332
240 249 257 261 265 268 275 276 279 282 286 291 292 289 288 286 288 288 290 286 279 273 259 250 227 225 251 275 289 294 294 299 303 304 305 303 278 280 299 306 304 312 320 327
246 249 254 258 266 270 275 279 282 282 285 287 285 284 286 290 294 296 290 281 276 264 256 217 215 241 269 289 295 295 297 303 307 308 302 282 274 288 303 310 304 305 310 316
245 255 265 270 273 274 276 278 278 280 282 284 281 282 290 293 298 303 293 284 271 250 218 212 239 260 279 291 293 293 297 303 307 307 302 280 282 290 297 298 300 301 309 315
252 260 264 265 268 271 273 272 275 277 276 266 273 277 281 288 306 313 314 283 240 210 211 248 265 276 288 293 294 291 299 303 304 305 295 278 282 291 296 300 301 302 307 314
255 259 262 264 268 271 278 279 268 263 264 276 285 289 285 280 278 290 319 253 211 225 253 271 281 288 291 292 293 298 303 305 306 304 284 276 279 290 299 306 303 305 310 313
247 256 260 265 267 267 255 254 259 266 276 277 287 303 288 270 262 256 259 256 254 264 275 282 288 291 292 292 295 298 300 302 300 291 278 276 284 292 297 300 303 307 308 310
255 257 260 258 243 246 256 263 266 270 271 281 287 295 306 289 263 260 256 264 267 274 283 289 292 292 291 293 293 296 302 299 291 286 283 279 283 289 295 297 298 300 303 307
249 237 235 246 255 259 260 259 261 272 279 279 289 293 288 282 275 281 279 276 278 283 293 287 287 286 291 292 294 297 301 297 296 289 282 284 287 289 291 293 295 300 304 308
235 244 246 247 252 255 260 264 268 271 275 281 279 277 276 280 281 280 283 284 286 288 288 284 283 284 286 288 291 295 298 297 291 289 289 288 289 291 292 294 296 298 301 303
241 245 256 262 264 265 269 269 272 273 277 280 282 276 286 282 277 282 286 286 286 282 279 286 287 283 283 285 288 290 291 290 290 288 288 290 291 292 295 296 297 298 298 300
261 265 264 263 266 268 268 270 273 275 278 283 283 288 282 280 281 283 285 284 279 282 287 287 284 282 284 284 282 286 288 287 287 287 287 288 289 292 293 294 295 295 297 301
261 264 265 265 266 266 268 272 275 277 280 279 281 284 283 282 284 291 289 284 283 284 285 285 287 288 288 289 287 287 288 288 287 287 288 290 290 292 295 294 298 299 298 298
266 267 270 273 272 270 269 271 275 280 283 281 285 282 282 287 289 284 283 286 287 288 286 287 289 287 285 285 288 289 289 290 291 291 292 293 295 296 295 293 297 298 297 297
271 272 273 274 275 276 277 280 278 280 281 281 280 285 283 285 288 288 289 294 293 292 291 290 290 289 289 288 288 289 288 288 289 290 290 289 290 291 292 292 292 292 293 295
274 275 275 274 274 276 280 282 283 284 285 285 284 285 284 283 282 284 286 287 286 287 288 289 289 290 289 290 291 292 291 291 289 288 288 288 290 292 293 294 294 295 295 296
276 277 279 279 281 279 282 283 281 280 279 281 284 283 283 283 285 285 286 283 282 282 283 284 286 287 287 288 290 291 290 290 291 291 289 289 290 292 292 292 292 293 295 296
283 283 282 283 281 282 287 285 285 284 282 284 282 283 283 282 282 286 287 288 287 288 288 287 287 288 288 289 289 289 290 290 290 290 290 290 290 290 290 291 291 290 290 291
283 283 283 286 284 286 295 288 284 281 284 284 284 285 286 290 292 290 287 287 288 289 289 289 290 290 289 289 289 289 289 289 289 289 288 288 287 287 287 288 288 289 289 289
285 286 288 288 288 290 290 287 285 285 285 284 282 284 286 288 288 289 287 287 288 289 289 290 291 292 292 292 292 292 292 292 291 291 290 290 290 290 290 291 291 292 293 293
283 284 287 287 288 290 292 289 288 288 286 286 288 288 288 289 290 289 288 288 289 287 287 287 289 291 291 291 290 290 291 291 291 291 291 291 290 290 291 292 292 292 292 292
280 280 283 284 286 289 290 290 290 289 288 289 289 291 293 291 289 287 288 290 292 293 293 292 293 292 291 291 291 292 293 293 293 293 292 292 292 292 292 291 290 290 289 288
279 283 284 283 285 287 288 286 286 286 286 287 290 291 292 293 291 291 293 293 294 295 294 293 293 293 293 294 294 294 294 294 293 292 291 291 290 289 289 290 290 290 288 288
284 287 288 281 287 287 284 286 287 288 290 291 291 291 291 291 293 294 294 295 295 294 293 293 293 293 294 294 294 293 292 292 292 292 292 291 292 291 291 290 288 288 288 288
286 287 285 285 283 283 284 285 285 285 285 285 285 286 287 287 288 289 290 290 290 290 290 290 290 290 290 290 290 289 290 289 289 289 289 290 290 291 290 289 288 286 285 286